Regional Weather Roundup
Issued by NWS Little Rock, AR

Home | Current Version | Previous Version | Graphics & Text | Print | Product List | Glossary On
Versions: 1 2 3 4 5 6 7 8 9 10 11 12 13 14 15 16 17 18 19 20 21 22 23 24 25 26 27 28 29 30 31 32 33 34 35 36 37 38 39 40 41 42 43 44 45 46 47 48 49 50
000
ASUS44 KLZK 101205
RWRLZK

WEATHER ROUNDUP FOR ARKANSAS
NATIONAL WEATHER SERVICE LITTLE ROCK AR
600 AM CST SUN DEC 10 2017

NOTE: "FAIR" INDICATES FEW OR NO CLOUDS BELOW 12,000 FEET WITH NO
SIGNIFICANT WEATHER AND/OR OBSTRUCTIONS TO VISIBILITY.

ARZ001-003-010-029-101300-
NORTHWEST ARKANSAS

CITY           SKY/WX    TMP DP  RH WIND       PRES   REMARKS
FAYETTEVILLE   CLOUDY    21  19  92 S7        30.25S WCI  12
6HR MIN TEMP:  20; 6HR MAX TEMP:  24;

FORT SMITH     CLOUDY    26  21  81 CALM      30.30S
6HR MIN TEMP:  24; 6HR MAX TEMP:  34;

HARRISON       CLOUDY    26  19  74 SE3       30.20F
6HR MIN TEMP:  25; 6HR MAX TEMP:  33;

BENTONVILLE    CLOUDY    26  20  77 S5        30.24S WCI  20
6HR MIN TEMP:  25; 6HR MAX TEMP:  28;

ROGERS         CLOUDY    32  22  66 SW12      30.22F WCI  23
6HR MIN TEMP:  27; 6HR MAX TEMP:  32;

SILOAM SPGS    CLOUDY    27  20  75 S8        30.24S WCI  19
6HR MIN TEMP:  23; 6HR MAX TEMP:  29;

HIGHFILL       CLOUDY    28  20  71 SW8       30.22F WCI  20
6HR MIN TEMP:  23; 6HR MAX TEMP:  30;

SPRINGDALE     CLEAR     23  19  86 CALM      30.24
$$

ARZ004-005-016-101300-
NORTH CENTRAL ARKANSAS

CITY           SKY/WX    TMP DP  RH WIND       PRES   REMARKS
BATESVILLE     CLOUDY    28  20  71 S3        30.26F
6HR MIN TEMP:  24; 6HR MAX TEMP:  31;

FLIPPIN        CLOUDY    28  19  69 S6        30.23F WCI  22
6HR MIN TEMP:  22; 6HR MAX TEMP:  29;

$$

ARZ040-041-101300-
WEST CENTRAL ARKANSAS

CITY           SKY/WX    TMP DP  RH WIND       PRES   REMARKS
MENA           CLEAR     34  25  69 W5        30.31R WCI  30
MOUNT IDA      CLEAR     25  22  88 CALM      30.28S
6HR MIN TEMP:  24; 6HR MAX TEMP:  29;

$$

ARZ009-017-025-026-028-101300-
NORTHEAST ARKANSAS

CITY           SKY/WX    TMP DP  RH WIND       PRES   REMARKS
JONESBORO      CLEAR     27  22  81 W5        30.28S WCI  22
6HR MIN TEMP:  24; 6HR MAX TEMP:  32;

NEWPORT        CLEAR     25  22  88 S8        30.28F WCI  16
6HR MIN TEMP:  25; 6HR MAX TEMP:  33;

WALNUT RIDGE   CLEAR     24  20  84 SW5       30.27S WCI  18
6HR MIN TEMP:  23; 6HR MAX TEMP:  31;

BLYTHEVILLE    CLEAR     26  22  84 S6        30.28S WCI  19
6HR MIN TEMP:  23; 6HR MAX TEMP:  28;

$$

ARZ022-023-033-042-044-101300-
CENTRAL ARKANSAS

CITY           SKY/WX    TMP DP  RH WIND       PRES   REMARKS
LITTLE ROCK    CLEAR     27  23  85 W6        30.32R WCI  20
6HR MIN TEMP:  26; 6HR MAX TEMP:  33;

N LITTLE ROCK    N/A     32  23  68 CALM      30.34R
6HR MIN TEMP:  32; 6HR MAX TEMP:  38;

JACKSONVILLE   CLOUDY    20  17  86 CALM      30.30R
6HR MIN TEMP:  20; 6HR MAX TEMP:  27;

SEARCY         CLOUDY    20  20 100 CALM      30.31S
6HR MIN TEMP:  20; 6HR MAX TEMP:  30;

HOT SPRINGS    CLEAR     27  24  89 CALM      30.32S
6HR MIN TEMP:  27; 6HR MAX TEMP:  36;

RUSSELLVILLE   CLOUDY    22  20  92 CALM      30.30R
6HR MIN TEMP:  22; 6HR MAX TEMP:  27;

CLINTON        FAIR      19  18  93 CALM      30.29F
$$

ARZ036-101300-
EAST ARKANSAS

CITY           SKY/WX    TMP DP  RH WIND       PRES   REMARKS
WEST MEMPHIS   CLEAR     23  23 100 CALM      30.29S
6HR MIN TEMP:  22; 6HR MAX TEMP:  30;

$$

ARZ050-053-066-070-073-101300-
SOUTHWEST ARKANSAS

CITY           SKY/WX    TMP DP  RH WIND       PRES   REMARKS
ARKADELPHIA    FAIR      19  17  92 CALM      30.35R
6HR MIN TEMP:  19; 6HR MAX TEMP:  26;

CAMDEN         CLEAR     23  19  86 CALM      30.35R
TEXARKANA      CLOUDY    31  25  78 S5        30.34R WCI  26
6HR MIN TEMP:  29; 6HR MAX TEMP:  39;

EL DORADO      CLEAR     26  25  96 CALM      30.35R
6HR MIN TEMP:  25; 6HR MAX TEMP:  32;

DE QUEEN       CLEAR     23  22  96 CALM      30.34R
6HR MIN TEMP:  22; 6HR MAX TEMP:  27;

$$

ARZ056-057-069-101300-
SOUTHEAST ARKANSAS

CITY           SKY/WX    TMP DP  RH WIND       PRES   REMARKS
PINE BLUFF     CLEAR     25  22  88 CALM      30.33
6HR MIN TEMP:  25; 6HR MAX TEMP:  30;

STUTTGART      CLEAR     29  25  85 SW5       30.32S WCI  24
6HR MIN TEMP:  28; 6HR MAX TEMP:  35;

MONTICELLO     CLEAR     26  22  84 W6        30.34R WCI  19
6HR MIN TEMP:  26; 6HR MAX TEMP:  33;


$$





USA.gov is the U.S. government's official web portal to all federal, state and local government web resources and services.